Location: Bouchavesnes-Bergen
(49.9859°N, 2.9203°E)
Time: 21:23:56
(UTC+00:00)

Cosmos 883 Rocket - Visible Passes

Search period start: 24 June 2021 00:00
Search period end: 04 July 2021 00:00
Orbit: 950 x 996 km, 83.0° (Epoch: 23 June)

Date Brightness Start Highest point End Pass type
(mag) Time Alt. Az. Time Alt. Az. Time Alt. Az.
24 Jun 6.6 00:56:14 10° NNE 01:01:01 23° ENE 01:05:45 10° ESE visible
24 Jun 4.5 02:40:53 10° NNW 02:47:00 73° W 02:53:05 10° S visible
25 Jun 5.8 01:20:22 10° N 01:26:00 36° ENE 01:31:35 10° SE visible
26 Jun 7.0 00:01:40 10° NNE 00:04:02 12° NE 00:06:22 10° ENE visible
26 Jun 5.0 01:44:44 10° N 01:50:49 59° ENE 01:56:50 10° SSE visible
27 Jun 6.7 00:24:55 10° NNE 00:29:16 20° ENE 00:33:35 10° ESE visible
27 Jun 4.5 02:09:17 10° N 02:15:27 86° W 02:21:35 10° S visible
28 Jun 6.0 00:48:56 10° N 00:54:19 31° ENE 00:59:40 10° SE visible
28 Jun 4.7 02:34:02 10° NNW 02:39:57 52° W 02:45:50 10° SSW visible
28 Jun 7.2 23:31:37 10° NE 23:32:11 10° NE 23:32:45 10° NE visible
29 Jun 5.2 01:13:14 10° N 01:19:11 50° ENE 01:25:07 10° SSE visible
29 Jun 6.8 23:53:41 10° NNE 23:57:30 17° ENE 00:01:18 10° E visible
30 Jun 4.5 01:37:43 10° N 01:43:53 81° E 01:50:02 10° SSE visible
01 Jul 6.2 00:17:32 10° N 00:22:37 26° ENE 00:27:41 10° ESE visible
01 Jul 4.6 02:02:24 10° NNW 02:08:25 62° W 02:14:27 10° S visible
02 Jul 5.5 00:41:45 10° N 00:47:32 42° ENE 00:53:19 10° SE visible
02 Jul 5.1 02:27:16 10° NNW 02:32:49 38° W 02:38:22 10° SSW visible
02 Jul 6.8 23:22:33 10° NNE 23:25:42 14° NE 23:28:51 10° E visible
03 Jul 4.7 01:06:10 10° N 01:12:18 69° ENE 01:18:01 12° SSE visible
03 Jul 5.8 02:52:26 10° NNW 02:57:03 23° W 03:01:40 10° SW visible
03 Jul 6.3 23:46:10 10° NNE 23:50:54 23° ENE 23:55:36 10° ESE visible
